Location: Unspecified
(0.0000°N, 0.0000°E)
Time: 13:25:25
(UTC+00:00)

Tiros 1 despin weight - Visible Passes

Search period start: 20 July 2019 00:00
Search period end: 30 July 2019 00:00
Orbit: 594 x 642 km, 48.2° (Epoch: 20 July)

Date Brightness Start Highest point End Pass type
(mag) Time Alt. Az. Time Alt. Az. Time Alt. Az.
20 Jul ? 20:06:23 10° N 20:07:36 16° N 20:07:36 16° N visible
21 Jul ? 20:22:09 10° NNW 20:23:53 23° NNW 20:23:53 23° NNW visible
22 Jul ? 18:59:21 10° NNE 19:01:43 14° NE 19:03:09 12° ENE visible
22 Jul ? 20:38:56 10° WNW 20:40:15 18° WNW 20:40:15 18° WNW visible
23 Jul ? 19:14:12 10° NNW 19:18:21 37° NE 19:19:35 30° E visible
24 Jul ? 19:30:25 10° NW 19:34:54 76° SW 19:36:06 47° SSE visible
25 Jul ? 19:47:40 10° WNW 19:51:28 27° SW 19:52:39 24° SSW visible
27 Jul ? 18:38:51 10° NW 18:43:13 48° SW 18:47:32 10° SSE visible
28 Jul ? 05:06:37 10° S 05:09:57 20° SE 05:13:19 10° E visible
28 Jul ? 18:56:42 10° W 18:59:48 18° SW 19:02:52 10° S visible
29 Jul ? 05:22:06 10° SSW 05:26:32 54° SE 05:31:00 10° NE visible
